FW1237 Weather Reports


time (UTC)temp
C
wind
direction
speed
KPH
gust
KPH
rain 1hr
cm
rain 24hr
cm
rain mn
cm
humidity
%
barometer
mb
20260906172717 23 0.0 0.0 0.00 0.00 0.00 81 1020.1
20260906171716 23 0.0 0.0 0.00 0.00 0.00 83 1020.3
20260906170716 23 0.0 0.0 0.00 0.00 0.00 78 1020.3
20260906165717 23 0.0 0.0 0.00 0.00 0.00 83 1020.1
20260906164717 22 0.0 0.0 0.00 0.00 0.00 84 1020.2
20260906163715 23 0.0 1.6 0.00 0.00 0.00 82 1020.5
20260906162716 22 0.0 0.0 0.00 0.00 0.00 81 1020.6
20260906161715 22 0.0 0.0 0.00 0.00 0.00 82 1020.4
20260906160716 22 0.0 0.0 0.00 0.00 0.00 83 1020.4
20260906155718 22 0.0 0.0 0.00 0.00 0.00 85 1020.5
20260906154718 21 0.0 0.0 0.00 0.00 0.00 86 1020.6
20260906153718 21 0.0 0.0 0.00 0.00 0.00 88 1020.7
20260906152718 21 0.0 0.0 0.00 0.00 0.00 88 1020.8
20260906151740 21 0.0 0.0 0.00 0.00 0.00 87 1020.7
20260906150719 21 0.0 0.0 0.00 0.00 0.00 87 1020.6
20260906145718 20 0.0 0.0 0.00 0.00 0.00 88 1020.5
20260906144719 20 0.0 0.0 0.00 0.00 0.00 90 1020.4
20260906143718 20 0.0 0.0 0.00 0.00 0.00 92 1020.3
20260906142717 20 0.0 0.0 0.00 0.00 0.00 91 1020.0
20260906141717 20 0.0 0.0 0.00 0.00 0.00 95 1019.8
20260906140718 19 0.0 0.0 0.00 0.00 0.00 95 1019.7
20260906135717 18 0.0 0.0 0.00 0.00 0.00 95 1019.5
20260906134717 18 0.0 0.0 0.00 0.00 0.00 95 1019.8
20260906133718 18 0.0 0.0 0.00 0.00 0.00 96 1020.1
20260906132717 18 0.0 0.0 0.00 0.00 0.00 96 1020.1
20260906131717 18 0.0 0.0 0.00 0.00 0.00 96 1020.2
20260906130717 18 0.0 0.0 0.00 0.00 0.00 96 1020.2
20260906125717 18 0.0 0.0 0.00 0.00 0.00 96 1020.2
20260906124719 18 0.0 0.0 0.00 0.00 0.00 96 1020.1
20260906123719 18 0.0 0.0 0.00 0.00 0.00 96 1020.0
20260906122718 18 0.0 0.0 0.00 0.00 0.00 96 1019.6
20260906121717 18 0.0 0.0 0.00 0.00 0.00 96 1019.7
20260906120717 18 0.0 0.0 0.00 0.00 0.00 96 1019.6
20260906115738 18 0.0 0.0 0.00 0.00 0.00 96 1019.4
20260906114912 18 0.0 0.0 0.00 0.00 0.00 96 1019.1
20260906114617 18 0.0 0.0 0.00 0.00 0.00 96 1019.1
20260906113617 18 0.0 0.0 0.00 0.00 0.00 96 1018.9
20260906112619 18 0.0 0.0 0.00 0.00 0.00 96 1018.9
20260906111619 18 0.0 0.0 0.00 0.00 0.00 96 1018.9
20260906110637 18 0.0 0.0 0.00 0.00 0.00 96 1018.8
20260906105617 18 0.0 0.0 0.00 0.00 0.00 96 1018.9
20260906104638 18 0.0 0.0 0.00 0.00 0.00 96 1018.8
20260906103617 18 0.0 0.0 0.00 0.00 0.00 96 1018.8
20260906102618 18 0.0 0.0 0.00 0.00 0.00 96 1018.7
20260906101639 18 0.0 0.0 0.00 0.00 0.00 96 1018.6
20260906100617 18 0.0 0.0 0.00 0.00 0.00 96 1018.4
20260906095618 18 0.0 0.0 0.00 0.00 0.00 96 1018.2
20260906094617 19 0.0 0.0 0.00 0.00 0.00 96 1018.1
20260906093617 19 0.0 0.0 0.00 0.00 0.00 96 1018.1
20260906092617 19 0.0 0.0 0.00 0.00 0.00 96 1017.9
20260906091617 19 0.0 0.0 0.00 0.00 0.00 96 1017.9
20260906090618 18 0.0 0.0 0.00 0.00 0.00 96 1018.1
20260906085617 19 0.0 0.0 0.00 0.00 0.00 96 1018.2
20260906084617 19 0.0 0.0 0.00 0.00 0.00 96 1018.2
20260906083617 19 0.0 0.0 0.00 0.00 0.00 96 1018.4
20260906082617 19 0.0 0.0 0.00 0.00 0.00 96 1018.2
20260906081617 19 0.0 0.0 0.00 0.00 0.00 96 1018.5
20260906080617 19 0.0 0.0 0.00 0.00 0.00 96 1018.1
20260906075617 19 0.0 0.0 0.00 0.00 0.00 96 1018.2
20260906074637 19 0.0 0.0 0.00 0.00 0.00 96 1018.3
20260906073658 20 0.0 0.0 0.00 0.00 0.00 96 1018.4
20260906072637 20 0.0 0.0 0.00 0.00 0.00 96 1018.4
20260906071617 19 0.0 0.0 0.00 0.00 0.00 96 1018.4
20260906070618 19 0.0 0.0 0.00 0.00 0.00 96 1018.6
20260906065617 20 0.0 0.0 0.00 0.00 0.00 96 1018.7
20260906064638 20 0.0 0.0 0.00 0.00 0.00 96 1018.7
20260906063617 20 0.0 0.0 0.00 0.00 0.00 96 1018.8
20260906062617 20 0.0 0.0 0.00 0.00 0.00 96 1018.7
20260906061637 20 0.0 0.0 0.00 0.00 0.00 96 1018.8
20260906060617 20 0.0 0.0 0.00 0.00 0.00 95 1018.7
20260906055617 20 0.0 0.0 0.00 0.00 0.00 95 1018.6
20260906054616 20 0.0 0.0 0.00 0.00 0.00 95 1018.6
20260906053616 20 0.0 0.0 0.00 0.00 0.00 95 1018.6
20260906052618 20 0.0 0.0 0.00 0.00 0.00 95 1018.5
20260906051617 20 0.0 0.0 0.00 0.00 0.00 95 1018.3
20260906050617 21 0.0 0.0 0.00 0.00 0.00 95 1018.3
20260906045617 20 0.0 0.0 0.00 0.00 0.00 95 1018.3
20260906044618 20 0.0 0.0 0.00 0.00 0.00 95 1018.3
20260906043616 20 0.0 0.0 0.00 0.00 0.00 95 1018.3
20260906042636 20 0.0 0.0 0.00 0.00 0.00 95 1018.4
20260906041616 20 0.0 0.0 0.00 0.00 0.00 95 1018.4
20260906040616 21 0.0 0.0 0.00 0.00 0.00 94 1018.5
20260906035618 21 0.0 0.0 0.00 0.00 0.00 94 1018.4
20260906034616 21 0.0 0.0 0.00 0.00 0.00 94 1018.2
20260906033616 21 0.0 0.0 0.00 0.00 0.00 94 1018.1
20260906032618 21 0.0 0.0 0.00 0.00 0.00 94 1017.8
20260906031617 21 0.0 0.0 0.00 0.00 0.00 94 1017.7
20260906030618 21 0.0 0.0 0.00 0.00 0.00 93 1017.6
20260906025616 21 0.0 0.0 0.00 0.00 0.00 93 1017.6
20260906024616 21 0.0 0.0 0.00 0.00 0.00 93 1017.3
20260906023618 21 0.0 0.0 0.00 0.00 0.00 94 1017.3
20260906022616 21 0.0 0.0 0.00 0.00 0.00 94 1017.1
20260906021616 21 0.0 0.0 0.00 0.00 0.00 94 1017.0
20260906020616 21 0.0 0.0 0.00 0.00 0.00 94 1016.8
20260906015637 21 0.0 0.0 0.00 0.00 0.00 93 1016.7
20260906014636 22 0.0 0.0 0.00 0.00 0.00 93 1016.5
20260906013618 22 0.0 0.0 0.00 0.00 0.00 92 1016.1
20260906012616 22 0.0 0.0 0.00 0.00 0.00 92 1016.0
20260906011616 22 0.0 0.0 0.00 0.00 0.00 92 1016.0
20260906010616 22 0.0 1.6 0.00 0.00 0.00 91 1015.8
20260906005617 22 0.0 0.0 0.00 0.00 0.00 92 1015.6
20260906004616 22 0.0 1.6 0.00 0.00 0.00 91 1015.6
20260906003616 22 0.0 0.0 0.00 0.00 0.00 91 1015.8
20260906002617 22 0.0 0.0 0.00 0.00 0.00 90 1015.8
20260906001617 23 0.0 0.0 0.00 0.00 0.00 89 1015.6
20260906000617 23 0.0 0.0 0.00 0.00 0.00 89 1015.5
20260905235639 23 158 1.6 1.6 0.00 0.00 0.00 89 1015.3
20260905234617 23 0.0 1.6 0.00 0.00 0.00 89 1015.5
20260905233618 23 0.0 1.6 0.00 0.00 0.00 88 1015.7
20260905232636 23 203 1.6 1.6 0.00 0.00 0.00 88 1015.8
20260905231616 23 203 1.6 1.6 0.00 0.00 0.00 87 1015.8
20260905230616 23 0.0 1.6 0.00 0.00 0.00 85 1015.9
20260905225616 23 0.0 1.6 0.00 0.00 0.00 86 1015.9
20260905224636 24 225 1.6 3.2 0.00 0.00 0.00 86 1016.0
20260905223617 24 248 1.6 3.2 0.00 0.00 0.00 83 1016.2
20260905222617 24 293 3.2 3.2 0.00 0.00 0.00 83 1016.1
20260905221617 25 270 3.2 4.8 0.00 0.00 0.00 83 1016.0
20260905220616 25 270 3.2 6.4 0.00 0.00 0.00 82 1016.1
20260905215616 25 248 4.8 8.0 0.00 0.00 0.00 82 1016.1
20260905214616 25 225 3.2 4.8 0.00 0.00 0.00 83 1016.1
20260905213616 25 0.0 1.6 0.00 0.00 0.00 84 1016.4
20260905212616 25 248 1.6 3.2 0.00 0.00 0.00 84 1016.5
20260905211617 25 248 1.6 4.8 0.00 0.00 0.00 83 1016.5
20260905210617 25 293 4.8 4.8 0.00 0.00 0.00 82 1016.5
20260905205617 26 270 3.2 3.2 0.00 0.00 0.00 81 1016.7
20260905204617 26 270 3.2 4.8 0.00 0.00 0.00 83 1016.5
20260905203616 26 0.0 1.6 0.00 0.00 0.00 82 1016.5
20260905202616 26 338 1.6 1.6 0.00 0.00 0.00 81 1016.5
20260905201616 26 270 1.6 3.2 0.00 0.00 0.00 82 1016.5
20260905200616 26 270 1.6 6.4 0.00 0.00 0.00 80 1016.7
20260905195616 26 293 4.8 4.8 0.00 0.00 0.00 78 1016.7
20260905194617 27 203 3.2 4.8 0.00 0.00 0.00 79 1016.7
20260905193616 26 203 3.2 6.4 0.00 0.00 0.00 79 1017.0
20260905192637 26 270 1.6 3.2 0.00 0.00 0.00 82 1016.8
20260905191636 26 23 1.6 1.6 0.00 0.00 0.00 78 1017.0
20260905190616 27 0.0 1.6 0.00 0.00 0.00 78 1016.9
20260905185617 26 248 1.6 3.2 0.00 0.00 0.00 83 1017.1
20260905184616 26 0.0 1.6 0.00 0.00 0.00 84 1017.0
20260905183616 26 203 1.6 4.8 0.00 0.00 0.00 80 1016.9
20260905182616 26 0.0 1.6 0.00 0.00 0.00 83 1016.8
20260905181616 26 225 1.6 1.6 0.00 0.00 0.00 80 1016.8
20260905180637 26 180 1.6 3.2 0.00 0.00 0.00 79 1016.9
20260905175616 26 0.0 1.6 0.00 0.00 0.00 80 1017.2
20260905174617 26 203 1.6 4.8 0.00 0.00 0.00 81 1017.4
20260905173639 26 0.0 1.6 0.00 0.00 0.00 86 1017.4